Kuchera_Ratio
5.1 4.5 4.3 4.9 4.7 5.7 6.3 5.9 5.9 5.1 5.9 5.3 4.3 3.5 3.5 2.7 1.7 0.7 0.0 0.0 0.0 0.0 0.0 0.0 0.0 0.0 0.0 0.0 0.0 0.0 0.0 0.0 0.0 0.0 0.0 0.0 0.0 0.0 0.0 0.0 0.0 0.0 0.0
5.5 5.3 5.7 5.7 5.9 7.7 7.9 7.1 6.3 7.7 6.7 7.9 7.3 5.5 5.1 4.5 3.7 2.6 1.8 0.0 0.0 0.0 0.0 0.0 0.0 0.0 0.0 0.0 0.0 0.0 0.0 0.0 0.0 0.0 0.0 0.0 0.0 0.0 0.0 0.0 0.0 0.0 0.0
7.3 6.9 8.1 8.9 8.9 9.3 9.3 8.7 7.9 8.5 9.1 9.1 8.5 7.9 7.9 7.1 6.5 5.3 3.1 0.0 0.0 0.0 0.0 0.0 0.0 0.0 0.0 0.0 0.0 0.0 0.0 0.0 0.0 0.0 0.0 0.0 0.0 0.0 0.0 0.0 0.0 0.0 0.0
9.7 8.7 9.7 11.1 11.1 11.3 9.9 10.1 9.9 9.5 10.7 11.3 10.9 9.7 9.1 8.5 7.7 7.3 6.5 3.5 0.0 0.0 0.0 0.0 0.0 0.0 0.0 0.0 0.0 0.0 0.0 0.0 0.0 0.0 0.0 0.0 0.0 0.0 0.0 0.0 0.0 0.0 0.0
10.3 9.7 10.1 10.3 11.1 11.7 11.5 11.3 11.5 10.9 11.5 11.9 12.3 11.7 11.3 9.9 8.7 9.3 8.7 8.3 7.5 3.7 2.1 0.0 0.0 0.0 0.0 0.0 0.0 0.0 0.0 0.0 0.0 0.0 0.0 0.0 0.0 0.0 0.0 0.0 0.0 0.0 0.0
10.5 10.5 9.5 10.1 10.9 12.4 12.6 12.4 12.1 11.9 12.1 12.3 12.5 12.7 12.4 10.9 8.5 8.3 8.9 11.5 10.3 9.5 8.0 6.5 1.9 0.0 0.0 0.0 0.0 0.0 0.0 0.0 0.0 0.0 0.0 0.0 0.0 0.0 0.0 0.0 0.0 0.0 0.0
10.9 10.5 10.3 10.9 12.2 12.6 12.6 12.8 12.8 12.6 12.5 13.0 13.4 13.3 13.5 12.3 9.1 10.1 10.1 12.1 12.8 12.8 10.0 7.8 7.1 3.9 2.6 0.7 0.0 0.0 0.0 0.0 0.0 0.0 0.0 0.0 0.0 0.0 0.0 0.0 0.0 0.0 0.0
12.4 12.2 11.9 11.9 13.0 13.0 13.4 13.6 13.4 12.7 13.1 13.1 13.4 13.2 13.5 12.6 8.7 10.9 12.4 13.2 13.3 13.5 13.5 12.1 10.9 8.7 6.6 4.9 2.7 2.2 3.0 0.0 0.0 0.0 0.0 0.0 0.0 0.0 0.0 0.0 0.0 0.0 0.0
13.6 13.2 12.8 12.5 13.5 14.0 14.5 14.5 13.9 13.5 13.4 13.3 13.0 13.6 13.6 13.4 9.1 9.7 13.1 13.9 14.0 14.2 14.1 13.3 12.9 12.3 10.1 8.4 6.3 6.9 4.8 3.9 6.1 0.0 0.0 0.8 0.0 0.0 0.0 0.0 0.0 0.0 0.0
15.3 14.1 13.3 12.5 14.2 14.8 15.0 14.8 14.0 13.7 13.3 13.4 13.3 13.9 13.1 14.0 11.1 10.9 12.6 13.9 14.7 13.7 14.6 14.2 12.6 12.7 12.1 11.1 9.8 8.2 8.1 8.0 5.9 5.7 7.2 3.8 6.0 4.7 0.0 0.0 0.0 0.0 0.0
16.3 14.6 14.4 14.3 13.3 14.9 15.4 15.3 14.8 14.6 14.5 15.4 15.0 14.9 14.7 13.9 13.5 11.9 12.5 14.5 14.5 15.0 14.8 14.0 13.6 13.0 12.7 12.6 11.5 10.3 9.7 9.9 9.6 9.4 8.6 6.0 4.7 2.3 1.3 3.2 0.0 0.0 1.8
16.8 17.2 17.3 17.9 15.4 15.0 16.9 17.3 15.6 16.1 16.8 17.2 17.2 17.0 16.2 15.4 13.9 13.6 13.4 14.0 15.6 15.9 15.2 15.8 15.3 14.2 14.4 13.8 12.8 12.1 12.4 12.0 10.4 7.8 8.4 7.6 6.3 5.1 4.7 4.3 3.3 4.0 4.7
17.1 17.6 18.0 17.9 18.5 18.5 18.0 18.1 17.4 17.8 17.9 18.0 18.0 17.8 18.0 17.0 16.6 14.8 14.9 15.1 16.0 17.4 17.5 16.9 15.8 16.1 16.2 15.9 14.4 14.1 14.1 13.2 12.5 10.1 8.9 8.7 10.7 9.8 9.3 5.9 5.1 5.1 5.0
17.5 17.8 17.9 17.9 18.2 18.2 18.6 18.5 18.3 17.9 18.3 18.4 18.6 19.0 19.0 18.7 17.7 17.5 17.8 18.0 17.5 17.2 17.1 17.8 17.9 17.9 17.3 16.4 16.0 15.7 15.6 15.7 14.8 13.1 12.9 13.0 12.5 11.8 11.4 10.7 8.7 7.4 5.4
15.5 16.1 17.2 17.8 18.3 18.3 18.0 18.2 18.8 18.4 16.7 18.7 19.5 19.3 19.2 19.6 18.1 15.9 16.7 18.7 19.2 18.4 17.8 17.7 17.1 16.7 16.3 16.4 16.7 16.9 17.0 16.6 15.6 15.0 14.6 14.5 14.2 13.6 12.9 11.7 10.1 8.8 8.7
16.2 16.7 17.3 17.9 18.4 18.9 19.3 19.2 17.1 16.0 15.2 14.9 15.1 16.5 19.7 15.4 15.0 15.4 16.0 16.6 17.5 19.2 18.7 18.9 19.0 18.8 18.3 18.2 18.2 18.0 17.6 17.0 16.7 16.5 16.3 15.7 15.3 14.9 14.7 14.2 13.4 12.4 12.3
16.7 16.7 17.0 17.3 17.7 18.1 18.5 19.1 19.7 20.3 17.3 16.8 16.3 16.5 15.6 15.9 16.0 16.5 17.3 18.5 18.9 18.9 19.0 19.7 20.3 20.0 20.0 20.5 20.0 19.9 19.8 19.5 19.3 18.7 18.2 17.7 17.3 16.7 16.0 15.8 15.1 14.5 13.9
16.6 16.8 17.0 17.1 17.4 17.7 17.9 18.1 18.3 18.3 18.7 19.4 19.5 18.8 17.9 17.3 17.4 18.0 19.0 20.0 18.5 19.1 19.9 20.5 20.7 21.0 21.1 21.1 21.5 21.5 21.6 21.5 21.0 20.7 20.4 20.0 19.5 19.0 18.0 17.4 17.2 16.5 15.6
15.8 16.2 16.6 17.1 17.4 17.6 18.0 18.3 18.4 18.6 18.6 18.6 18.5 19.0 19.9 19.5 19.5 19.9 20.6 20.4 20.9 21.4 21.6 22.1 22.1 21.9 22.2 22.4 22.3 22.6 22.6 22.1 22.2 22.0 21.9 21.9 21.4 20.3 19.3 18.6 17.9 17.8 17.2
16.4 16.0 16.0 16.7 17.4 17.9 18.2 18.3 18.5 18.6 18.9 19.3 19.6 19.5 19.4 19.5 19.1 19.6 20.4 20.6 20.9 21.2 21.7 22.3 23.0 23.5 23.6 23.6 23.3 23.0 22.8 22.7 22.3 22.4 22.5 22.4 22.4 20.9 20.0 19.4 18.8 18.5 17.6
17.6 18.1 17.9 17.9 18.2 18.6 18.9 19.3 19.8 20.1 20.2 20.4 20.9 21.2 21.5 21.7 21.8 22.0 21.8 21.6 21.5 22.0 22.4 22.7 22.8 23.1 23.4 24.0 24.4 24.2 23.9 23.7 23.6 23.3 23.0 23.1 23.1 22.6 20.4 19.4 18.6 18.2 17.7
18.0 18.4 19.0 19.4 19.9 20.4 21.0 21.3 21.5 21.6 21.9 22.0 22.0 22.3 22.7 23.2 23.5 23.7 24.0 24.0 23.9 23.8 23.7 23.7 24.0 24.0 24.3 24.4 24.5 24.8 25.2 25.1 24.6 24.2 24.3 24.0 23.8 22.8 21.7 20.6 19.4 18.9 18.1
18.3 18.8 19.4 20.0 20.4 21.0 21.4 21.9 22.3 22.8 23.2 23.5 23.9 24.4 24.7 24.8 24.6 24.4 24.6 24.9 25.2 25.4 25.5 25.5 25.6 25.8 26.0 26.0 26.2 26.1 25.8 25.8 26.0 26.1 25.6 25.1 24.7 23.4 23.0 22.0 20.6 19.8 19.1
18.8 19.1 19.6 20.2 20.8 21.3 21.6 22.0 22.4 23.0 23.5 23.7 24.0 24.5 25.1 25.4 25.9 26.2 26.5 26.8 26.7 26.5 26.2 26.1 26.1 26.1 26.2 26.4 26.7 27.1 26.6 27.1 27.2 26.6 26.2 25.6 25.2 23.8 23.6 22.7 21.2 20.8 19.5
19.4 19.6 19.9 20.4 20.9 21.3 21.8 22.1 22.4 22.8 23.2 23.6 23.9 24.4 24.8 25.3 25.7 26.0 26.4 26.7 27.0 27.4 27.7 27.7 27.6 27.6 27.3 27.1 26.9 26.7 26.8 26.5 26.4 26.4 26.1 25.8 25.5 24.8 24.0 23.4 22.6 21.0 20.1
20.1 20.1 20.4 20.8 21.2 21.6 22.0 22.3 22.4 22.7 23.1 23.3 23.7 24.0 24.3 24.8 25.2 25.7 26.0 26.4 26.8 27.1 27.5 27.6 28.1 28.4 28.0 27.8 27.6 26.3 27.1 26.6 26.6 26.1 26.1 26.0 25.8 25.3 24.8 24.1 23.4 21.7 21.2